Overview Statistics Trail Chart Weather Telemetry Raw packets
 

This is the latest recevied weather packets stored in our database for station/object PA3TA-2. If no packets are shown the sender has not sent any weather packets the latest 10 day(s).

<< 105 106 107 108 109 110 111 >>
Time Temp. Humidity Pressure Rain* Wind** Luminosity Snow
1787865599 26.67° C 63% 1010.8 hPa 11.43 mm - - -
1787865296 26.67° C 64% 1011.5 hPa 10.41 mm - - -
1787864993 27.22° C 64% 1011.2 hPa 9.4 mm - - -
1787864689 27.22° C 63% 1011.1 hPa 7.62 mm - - -
1787864386 27.22° C 62% 1011.2 hPa 5.59 mm - - -
1787864083 27.22° C 60% 1010.5 hPa 3.56 mm - - -
1787863769 27.78° C 59% 1009.7 hPa 3.3 mm - - -
1787863465 27.78° C 59% 1009.5 hPa 2.29 mm - - -
1787863162 27.78° C 58% 1009.5 hPa 1.27 mm - - -
1787862859 27.78° C 58% 1008.9 hPa 1.02 mm - - -
1787862555 27.78° C 58% 1008.9 hPa 0.76 mm - - -
1787862252 27.78° C 57% 1008.7 hPa 0.76 mm - - -
1787861949 28.33° C 57% 1008.8 hPa 0.76 mm - - -
1787861646 28.33° C 57% 1008.6 hPa 0.76 mm - - -
1787861331 28.33° C 56% 1008.3 hPa 0.76 mm - - -
1787861028 28.33° C 56% 1008.3 hPa 0.76 mm - - -
1787860725 28.33° C 56% 1008.4 hPa 0.76 mm - - -
1787860421 28.33° C 55% 1008.6 hPa 0.76 mm - - -
1787860118 28.33° C 55% 1008.7 hPa 0.76 mm - - -
1787859815 28.89° C 54% 1008.9 hPa 0.76 mm - - -
1787859511 28.89° C 54% 1009 hPa 0.76 mm - - -
1787859208 28.89° C 54% 1009.1 hPa 0.76 mm - - -
1787858894 28.89° C 53% 1009.3 hPa 0.76 mm - - -
1787858591 29.44° C 53% 1009.4 hPa 0.76 mm - - -
1787858287 29.44° C 53% 1009.6 hPa 0.76 mm - - -

* Rain since midnight (hover to see other rain measurements)
** Current wind speed in m/s (hover to see current wind gust speed)